Oxnard, CA

8:58 AM PDT on May 25, 2020 (GMT -0700)
Oxnard

Weather History for KOXR - April, 2020

Change the Weather History Date:

Thursday, April 9, 2020

  Actual Average Record
Temperature  
Mean Temperature 50 °F -  
Max Temperature 53 °F 67 °F 91 °F (2018)
Min Temperature 48 °F 48 °F 37 °F (1953)
Degree Days  
Heating Degree Days 14    
Moisture  
Dew Point 48 °F    
Average Humidity 88    
Maximum Humidity 93    
Minimum Humidity 83    
Precipitation  
Precipitation 1.05 in - - ()
Sea Level Pressure  
Sea Level Pressure 30.08 in    
Wind  
Wind Speed 7 mph (ENE)    
Max Wind Speed 13 mph    
Max Gust Speed -    
Visibility 8 miles    
Events Rain    
Averages and records for this station are not official NWS values.
T = Trace of Precipitation, MM = Missing Value Source: NWS Daily Summary

Daily Weather History Graph

Daily Weather History Graph

Search for Another Location

Airport or City:

Astronomy

Apr. 09, 2020 Rise Set
Actual Time 6:32 AM PDT 7:24 PM PDT
Civil Twilight 6:07 AM PDT 7:49 PM PDT
Nautical Twilight 5:36 AM PDT 8:20 PM PDT
Astronomical Twilight 5:05 AM PDT 8:51 PM PDT
Moon 9:38 PM PDT (4/9) 7:52 AM PDT (4/9)
Length of Visible Light 13h 42m
Length of Day
12h 51m
Waning Gibbous, 96% of the Moon is Illuminated
Apr 9
Waning Gibbous
Apr 14
Last Quarter
Apr 22
New
Apr 30
First Quarter
May 7
Full

Hourly Weather History & Observations

Time (PDT) Temp. Dew Point Humidity Pressure Visibility Wind Dir Wind Speed Gust Speed Precip Events Conditions
12:25 AM 52.0 °F 48.0 °F 86% 30.09 in 10.0 mi NNE 5.8 mph - 0.03 in Rain Light Rain
12:51 AM 52.0 °F 48.0 °F 86% 30.09 in 10.0 mi NNE 3.5 mph - 0.03 in   Overcast
1:51 AM 51.1 °F 48.0 °F 89% 30.08 in 10.0 mi ENE 6.9 mph - N/A   Overcast
2:51 AM 51.1 °F 48.0 °F 89% 30.08 in 8.0 mi NE 5.8 mph - 0.03 in Rain Light Rain
3:16 AM 51.8 °F 48.2 °F 88% 30.08 in 10.0 mi NE 6.9 mph - N/A Rain Light Rain
3:51 AM 50.0 °F 48.0 °F 93% 30.08 in 8.0 mi NE 8.1 mph - 0.05 in Rain Light Rain
4:51 AM 50.0 °F 46.9 °F 89% 30.09 in 7.0 mi NE 8.1 mph - 0.09 in Rain Rain
5:51 AM 48.9 °F 46.9 °F 93% 30.09 in 10.0 mi ENE 8.1 mph - 0.07 in Rain Light Rain
6:51 AM 50.0 °F 48.0 °F 93% 30.09 in 9.0 mi ENE 6.9 mph - 0.04 in Rain Light Rain
7:51 AM 50.0 °F 46.9 °F 89% 30.11 in 9.0 mi NE 9.2 mph - 0.03 in Rain Light Rain
8:51 AM 51.1 °F 46.9 °F 86% 30.11 in 10.0 mi ENE 9.2 mph - 0.02 in Rain Light Rain
9:51 AM 52.0 °F 48.0 °F 86% 30.12 in 10.0 mi ENE 9.2 mph - 0.00 in Rain Light Rain
10:51 AM 52.0 °F 48.9 °F 89% 30.12 in 7.0 mi ENE 9.2 mph - 0.02 in Rain Light Rain
11:51 AM 52.0 °F 48.9 °F 89% 30.11 in 5.0 mi ENE 10.4 mph - 0.04 in Rain Rain
12:51 PM 53.1 °F 50.0 °F 89% 30.10 in 6.0 mi NE 11.5 mph - 0.04 in Rain Light Rain
1:51 PM 53.1 °F 50.0 °F 89% 30.08 in 5.0 mi ENE 12.7 mph - 0.07 in Rain Rain
2:51 PM 53.1 °F 50.0 °F 89% 30.07 in 6.0 mi ESE 9.2 mph - 0.17 in Rain Light Rain
3:51 PM 52.0 °F 48.9 °F 89% 30.06 in 5.0 mi ENE 8.1 mph - 0.09 in Rain Rain
4:51 PM 52.0 °F 48.0 °F 86% 30.06 in 7.0 mi ENE 11.5 mph - 0.05 in Rain Light Rain
5:51 PM 52.0 °F 46.9 °F 83% 30.06 in 8.0 mi East 5.8 mph - 0.04 in Rain Rain
6:51 PM 51.1 °F 48.0 °F 89% 30.06 in 6.0 mi ENE 5.8 mph - 0.04 in Rain Rain
7:51 PM 51.1 °F 46.9 °F 86% 30.06 in 10.0 mi ENE 8.1 mph - 0.01 in   Overcast
9:51 PM 51.1 °F 46.9 °F 86% 30.07 in 10.0 mi East 5.8 mph - 0.00 in Rain Light Rain
10:51 PM 50.0 °F 46.9 °F 89% 30.06 in 9.0 mi ENE 6.9 mph - 0.05 in Rain Rain
11:51 PM 50.0 °F 46.9 °F 89% 30.06 in 10.0 mi ENE 8.1 mph - 0.07 in Rain Light Rain